Voltar ao catálogo

STARLINK-2510

AtivoComunicaçõesVLEO
NORAD 48329·PAYLOAD·🇺🇸 United States

Lançado Apr 29, 2021 de Cape Canaveral Space Force Station

Loading…

Próximas Passagens (próximas 24 horas)

TLE

AtualizadoSource: CelesTrak SupGP

Época: Sep 14, 2026, 20:53 UTC

1 48329C 21036BF  26257.87062500 -.00003219  00000+0 -10345-3 0  2577
2 48329  53.1572 300.5783 0001201  98.2934 212.5196 15.31725065    18

Acompanhe STARLINK-2510 em tempo real com AllMySat

Download on the App Store